Change the Weather History Date:

Tuesday, January 15, 2013

  Actual Average Record
Temperature  
Mean Temperature 66 °F 45 °F  
Max Temperature 79 °F 55 °F 79 °F (2013)
Min Temperature 53 °F 34 °F 12 °F (1948)
Degree Days  
Heating Degree Days 0 20  
Month to date heating degree days 170 307  
Since 1 July heating degree days 975 1286  
Cooling Degree Days 1 0  
Month to date cooling degree days 14 0  
Year to date cooling degree days 14 0  
Growing Degree Days 16 (Base 50)    
Moisture  
Dew Point 57 °F    
Average Humidity 71    
Maximum Humidity 97    
Minimum Humidity 45    
Precipitation  
Precipitation 0.00 in 0.10 in 2.06 in (1995)
Month to date precipitation 0.40 1.59  
Year to date precipitation 0.40 1.59  
Sea Level Pressure  
Sea Level Pressure 30.10 in    
Wind  
Wind Speed 5 mph (South)    
Max Wind Speed 15 mph    
Max Gust Speed 20 mph    
Visibility 8 miles    
Events      
T = Trace of Precipitation, MM = Missing Value Source: NWS Daily Summary

Daily Weather History Graph

Daily Weather History Graph

Search for Another Location

Airport or City:

Trip Planner

Search our weather history database for the weather conditions in past years. The results will help you decide how hot, cold, wet, or windy it might be!

Date:

Astronomy

Jan. 15, 2013 Rise Set
Actual Time 7:24 AM EST 5:32 PM EST
Civil Twilight 6:57 AM EST 5:59 PM EST
Nautical Twilight 6:26 AM EST 6:30 PM EST
Astronomical Twilight 5:56 AM EST 7:00 PM EST
Moon 9:42 AM EST (1/15) 10:05 PM EST (1/15)
Length of Visible Light 11h 02m
Length of Day
10h 08m
Waxing Crescent, 19% of the Moon is Illuminated
Jan 15
Waxing Crescent
Jan 18
First Quarter
Jan 26
Full
Feb 3
Last Quarter
Feb 10
New

Hourly Weather History & Observations

Time (EST) Temp. Dew Point Humidity Pressure Visibility Wind Dir Wind Speed Gust Speed Precip Events Conditions
12:53 AM 64.0 °F 59.0 °F 84% 30.14 in 10.0 mi SSW 6.9 mph - N/A   Clear
1:53 AM 63.0 °F 59.0 °F 87% 30.13 in 10.0 mi SSW 6.9 mph - N/A   Clear
2:53 AM 63.0 °F 59.0 °F 87% 30.12 in 10.0 mi SSW 6.9 mph - N/A   Clear
3:53 AM 62.1 °F 59.0 °F 90% 30.12 in 10.0 mi SSW 4.6 mph - N/A   Clear
4:53 AM 61.0 °F 57.9 °F 90% 30.09 in 10.0 mi South 4.6 mph - N/A   Clear
5:53 AM 60.1 °F 57.9 °F 93% 30.09 in 7.0 mi Calm Calm - N/A   Clear
7:03 AM 59.0 °F 57.2 °F 94% 30.11 in 2.0 mi SSW 3.5 mph - N/A   Clear
7:14 AM 57.2 °F 57.2 °F 100% 30.11 in 1.8 mi South 3.5 mph - N/A   Clear
7:20 AM 57.2 °F 57.2 °F 100% 30.12 in 3.0 mi South 4.6 mph - N/A   Clear
7:49 AM 59.0 °F 57.2 °F 94% 30.13 in 2.5 mi South 3.5 mph - N/A   Clear
7:53 AM 59.0 °F 57.0 °F 93% 30.13 in 2.5 mi South 3.5 mph - N/A   Clear
8:03 AM 59.0 °F 57.2 °F 94% 30.14 in 3.0 mi SW 3.5 mph - N/A   Clear
8:53 AM 61.0 °F 59.0 °F 93% 30.16 in 5.0 mi Calm Calm - N/A   Clear
9:53 AM 64.9 °F 60.1 °F 84% 30.17 in 10.0 mi SW 5.8 mph - N/A   Clear
10:53 AM 71.1 °F 60.1 °F 68% 30.15 in 10.0 mi WSW 4.6 mph - N/A   Clear
11:53 AM 73.9 °F 59.0 °F 59% 30.12 in 10.0 mi Calm Calm - N/A   Clear
12:53 PM 77.0 °F 57.9 °F 52% 30.08 in 10.0 mi SW 9.2 mph - N/A   Clear
1:53 PM 78.1 °F 57.9 °F 50% 30.06 in 10.0 mi SSW 8.1 mph - N/A   Partly Cloudy
2:53 PM 78.1 °F 55.9 °F 46% 30.05 in 10.0 mi SW 11.5 mph - N/A   Partly Cloudy
3:53 PM 77.0 °F 57.0 °F 50% 30.05 in 10.0 mi South 9.2 mph - N/A   Clear
4:53 PM 75.0 °F 57.9 °F 55% 30.06 in 10.0 mi SSE 5.8 mph - N/A   Overcast
5:53 PM 69.1 °F 59.0 °F 70% 30.07 in 10.0 mi SE 4.6 mph - N/A   Partly Cloudy
6:53 PM 64.9 °F 57.9 °F 78% 30.08 in 10.0 mi NE 9.2 mph - N/A   Scattered Clouds
7:53 PM 60.1 °F 55.0 °F 83% 30.09 in 10.0 mi NE 10.4 mph - N/A   Clear
8:53 PM 57.9 °F 54.0 °F 87% 30.07 in 8.0 mi ENE 4.6 mph - N/A   Clear
9:53 PM 55.9 °F 53.1 °F 90% 30.06 in 7.0 mi NE 3.5 mph - N/A   Clear
10:53 PM 55.0 °F 52.0 °F 89% 30.04 in 7.0 mi SE 3.5 mph - N/A   Clear
11:53 PM 55.0 °F 53.1 °F 93% 30.03 in 6.0 mi Calm Calm - N/A   Clear